Weather History for KTBN - November, 2012

Change the Weather History Date:

Saturday, November 3, 2012

  Actual Average Record
Temperature  
Mean Temperature 50 °F -  
Max Temperature 57 °F 58 °F 78 °F (2003)
Min Temperature 39 °F 43 °F 23 °F (2006)
Degree Days  
Heating Degree Days 15    
Moisture  
Dew Point 38 °F    
Average Humidity 64    
Maximum Humidity 90    
Minimum Humidity 51    
Precipitation  
Precipitation 0.00 in - - ()
Sea Level Pressure  
Sea Level Pressure 30.03 in    
Wind  
Wind Speed 9 mph (North)    
Max Wind Speed 15 mph    
Max Gust Speed 22 mph    
Visibility 10 miles    
Events      
Averages and records for this station are not official NWS values.
T = Trace of Precipitation, MM = Missing Value Source: NWS Daily Summary

Daily Weather History Graph

Daily Weather History Graph

Search for Another Location

Airport or City:

Trip Planner

Search our weather history database for the weather conditions in past years. The results will help you decide how hot, cold, wet, or windy it might be!

Date:

Astronomy

Nov. 03, 2012 Rise Set
Actual Time 7:36 AM CDT 6:07 PM CDT
Civil Twilight 7:09 AM CDT 6:34 PM CDT
Nautical Twilight 6:38 AM CDT 7:05 PM CDT
Astronomical Twilight 6:07 AM CDT 7:36 PM CDT
Moon 9:50 PM CDT (11/3) 11:39 AM CDT (11/3)
Length of Visible Light 11h 25m
Length of Day
10h 30m
Waning Gibbous, 80% of the Moon is Illuminated
Nov 3
Waning Gibbous
Nov 6
Last Quarter
Nov 13
New
Nov 20
First Quarter
Nov 28
Full

Hourly Weather History & Observations

Time (CDT) Temp. Windchill Dew Point Humidity Pressure Visibility Wind Dir Wind Speed Gust Speed Precip Events Conditions
12:55 AM 52.9 °F - 35.8 °F 52% 29.92 in 10.0 mi SSE 10.4 mph - N/A   Clear
1:55 AM 52.0 °F - 34.7 °F 52% 29.91 in 10.0 mi SSE 10.4 mph - N/A   Clear
2:55 AM 51.8 °F - 34.3 °F 51% 29.90 in 10.0 mi SSE 10.4 mph 17.3 mph N/A   Clear
3:55 AM 51.4 °F - 35.1 °F 54% 29.89 in 10.0 mi SSE 10.4 mph - N/A   Clear
4:55 AM 50.5 °F - 35.1 °F 55% 29.88 in 10.0 mi SSE 10.4 mph - N/A   Partly Cloudy
5:55 AM 48.9 °F - 36.0 °F 61% 29.91 in 10.0 mi SE 5.8 mph - N/A   Clear
6:55 AM 46.6 °F - 36.1 °F 67% 29.92 in 10.0 mi SSE 10.4 mph - N/A   Clear
7:55 AM 46.2 °F - 36.3 °F 68% 29.94 in 10.0 mi Calm Calm - N/A   Clear
8:55 AM 50.2 °F - 43.3 °F 77% 29.97 in 10.0 mi West 9.2 mph - N/A   Clear
9:55 AM 49.6 °F - 40.3 °F 70% 29.99 in 10.0 mi WNW 10.4 mph - N/A   Clear
10:55 AM 51.4 °F - 37.9 °F 60% 30.02 in 10.0 mi WNW 9.2 mph 17.3 mph N/A   Clear
11:55 AM 54.3 °F - 38.7 °F 55% 30.04 in 10.0 mi NW 12.7 mph - N/A   Clear
12:55 PM 56.1 °F - 39.0 °F 53% 30.04 in 10.0 mi NNW 13.8 mph - N/A   Clear
1:55 PM 56.8 °F - 40.1 °F 54% 30.05 in 10.0 mi NW 12.7 mph 21.9 mph N/A   Clear
2:55 PM 57.0 °F - 40.8 °F 55% 30.06 in 10.0 mi North 15.0 mph - N/A   Clear
3:55 PM 56.8 °F - 40.3 °F 54% 30.07 in 10.0 mi NW 9.2 mph - N/A   Clear
4:55 PM 54.3 °F - 39.6 °F 57% 30.10 in 10.0 mi North 11.5 mph - N/A   Clear
5:55 PM 51.4 °F - 38.8 °F 62% 30.12 in 10.0 mi NNW 6.9 mph - N/A   Partly Cloudy
6:55 PM 48.6 °F - 38.5 °F 68% 30.14 in 10.0 mi North 8.1 mph - N/A   Clear
7:55 PM 46.6 °F - 38.5 °F 73% 30.15 in 10.0 mi NNE 5.8 mph - N/A   Clear
8:55 PM 44.4 °F 41.2 °F 38.1 °F 79% 30.15 in 10.0 mi NNE 5.8 mph - N/A   Clear
9:55 PM 43.0 °F 41.3 °F 37.8 °F 82% 30.17 in 10.0 mi North 3.5 mph - N/A   Clear
10:55 PM 43.0 °F 41.3 °F 37.9 °F 82% 30.18 in 10.0 mi NNE 3.5 mph - N/A   Clear
11:55 PM 39.4 °F 37.2 °F 36.7 °F 90% 30.19 in 10.0 mi North 3.5 mph - N/A   Clear